AirNav   BOSE A20 Aviation Headset
 
 479 users online  

4NK3 Evans Airways Airport
Evans, New York, USA

GOING TO EVANS?


FAA INFORMATION EFFECTIVE 24 MAY 2018

Location

FAA Identifier: 4NK3
Lat/Long: 42-40-21.0000N / 078-58-01.1300W
42-40.350000N / 078-58.018833W
42.6725000 / -78.9669806
(estimated)
Elevation: 940 ft. / 287 m (estimated)
Variation: 10W (1995)
From city: 4 miles E of EVANS, NY
Time zone: UTC -4 (UTC -5 during Standard Time)
Zip code: 14006

Airport Operations

Airport use: Private use. Permission required prior to landing
Activation date: 02/1999
Control tower: no
ARTCC: CLEVELAND CENTER
FSS: BUFFALO FLIGHT SERVICE STATION
Attendance: UNATNDD
Wind indicator: yes
Segmented circle: no

Airport Communications

WX ASOS at DKK (17 nm SW): 119.275 (716-366-7664)
WX ASOS at BUF (19 nm NE): PHONE 716-635-0532

Nearby radio navigation aids

VOR radial/distance  VOR name  Freq  Var
BUFr231/20.9BUFFALO VOR/DME116.4008W
JHWr020/29.8JAMESTOWN VOR/DME114.7007W

 
NDB name  Hdg/Dist  Freq  Var  ID
PLAZZ218/13.820409WGB --. -...

Airport Services

Runway Information

Helipad H1

Dimensions: 50 x 50 ft. / 15 x 15 m
Surface: asphalt
Traffic pattern: leftleft

Runway 10/28

Dimensions: 2000 x 30 ft. / 610 x 9 m
Surface: turf
RUNWAY 10  RUNWAY 28
Traffic pattern: leftleft
Obstructions: none60 ft. pline, 1000 ft. from runway

Airport Ownership and Management from official FAA records

Ownership: Privately-owned
Owner: W J MILLIGAN
4995 SOUTHWESTERN BLVD
HAMBURG, NY 14075
Phone 716-648-5100
Manager: J M PRODUCTIONS INC
4995 SOUTHWESTERN BLVD
HAMBURG, NY 14075
Phone 716-648-5100
FACILITY LEASED TO ERIE COUNTY SHERIFF'S DEPT., 40 DELAWARE AVE, BUFFALO, NY.

Airport Operational Statistics

Aircraft based on the field: 4
Single engine airplanes: 2
Helicopters: 2
    

Instrument Procedures

There are no published instrument procedures at 4NK3.

Some nearby airports with instrument procedures:

9G0 - Buffalo Airfield (16 nm NE)
KDKK - Chautauqua County/Dunkirk Airport (17 nm SW)
KBUF - Buffalo Niagara International Airport (19 nm NE)
KIAG - Niagara Falls International Airport (26 nm N)
0G0 - North Buffalo Suburban Airport (28 nm NE)
 
Loc | Ops | Rwys | IFR | FBO | Links
Com | Nav | Svcs | Stats | Notes

AirNav Hotels Sweepstakes
 
Area around 4NK3 (Evans Airways Airport)
 
Road maps at: MapQuest Bing Google
 
Aerial photo
No photo
 
Sectional chart

 
Airport distance calculator
Flying to Evans Airways Airport? Find the distance to fly.

From to 4NK3

Sunrise and sunset
Times for 26-May-2018
 Local
(UTC-4)
 Zulu
(UTC)
Morning civil twilight05:1109:11
Sunrise05:4509:45
Sunset20:4100:41
Evening civil twilight21:1401:14

Current date and time
Zulu (UTC)  26-May-2018 05:24:07
Local (UTC-4)  26-May-2018 01:24:07
 
METAR
CWPC 
17nm NW 
260400Z AUTO 24007KT 16/09 RMK AO1 SLP099 T01560093 58006
KDKK 
17nm SW 
260453Z AUTO 20004KT 10SM CLR 17/11 A2982 RMK AO2 SLP096 T01720106 402610111 $
KBUF 
19nm NE 
260454Z 19006KT 10SM CLR 18/09 A2981 RMK AO2 SLP091 T01780094 402500117
KIAG 
27nm N 
260453Z AUTO 21007KT 10SM CLR 17/09 A2979 RMK AO2 SLP084 T01720089 402830144
CYSN 
32nm N 
260100Z 21011KT 15SM FEW250 23/08 A2978 RMK CI1 LAST STFD OBS / NEXT 261100 UTC SLP086 DENSITY ALT 1500FT
TAF
KBUF 
19nm NE 
260248Z 2603/2624 23008KT P6SM SKC
NOTAMs
Click for the latest NOTAMs
NOTAMs are issued by the DoD/FAA and will open in a separate window not controlled by AirNav.

 

 
 

Would you like to see your business listed on this page?

 If your business provides an interesting product or service to pilots, flight crews, aircraft, or users of the Evans Airways Airport, you should consider listing it here.  To start the listing process, click on the button below
 
Add a business
 

Other Pages about Evans Airways Airport

Update a link
 
Copyright © AirNav, LLC. All rights reserved. Privacy Policy  Contact